Погода в Суре

Россия / Архангельская область     63°34′26″N   45°38′03″E
темп.,
°C
ветер,
м/с
пор.,
м/с
влажн.,
%
обл.,
%
осадки,
мм/ч
давл.,
гПа
погр.,
м
9 марта, вт
вт900:00−30с249757 0.0 101488
03:00−32с239731 0.0 101665
06:00−33с229731 0.0 101742
09:00−29ссз249529 0.0 1019206
12:00−23ссз249163 0.0 1020353
15:00−20сз359076 0.0 1020474
18:00−25зсз239876 0.0 102134
21:00−25зюз239778 0.0 102168
10 марта, ср
ср1000:00−23з279895 0.1 1020259
03:00−25зсз239997 0.1 102171
06:00−26зсз2210094 0.1 102119
09:00−23зсз239792 0.1 1022150
12:00−16зсз259072 0.0 1021266
15:00−12зсз5108282 0.0 1019513
18:00−12зсз61489100 0.0 1018582
21:00−11сз61492100 0.1 1018608
11 марта, чт
чт1100:00−12сз51392100 0.1 1019533
03:00−15сз41293100 0.1 1020340
06:00−18зсз4129364 0.0 1020283
09:00−15зсз4108637 0.0 1020353
12:00−11зсз510730 0.0 1019591
15:00−10з511743 0.0 1018793
18:00−12з4138495 0.0 1017729
21:00−12з5148197 0.0 1016711
12 марта, пт
пт1200:00−12з51482100 0.0 1015655
03:00−13з51386100 0.0 1014563
06:00−14зюз41293100 0.0 1013502
09:00−12зюз51192100 0.1 1013461
12:00−8зюз5118480 0.0 1013541
15:00−5зюз5127844 0.0 1012737
18:00−8юз413850 0.0 1012528
21:00−8юз514860 0.0 1013525
13 марта, сб
сб1300:00−10юз515880 0.0 1013446
03:00−13юз413880 0.0 1013430
06:00−15ююз412920 0.0 1013393
09:00−12ююз5129033 0.0 1012498
12:00−9ююз61387100 0.0 1011663
15:00−8ююз61286100 0.1 1010759
18:00−9ююз51389100 0.1 1010732
21:00−10ююз41390100 0.1 1010641